Regional Weather Roundup
Issued by NWS

Home | Current Version | Previous Version | Graphics & Text | Print | Product List | Glossary On
Versions: 1 2 3 4 5 6 7 8 9 10 11 12 13 14 15 16 17 18 19 20 21 22 23 24 25 26 27 28 29 30 31 32 33 34 35 36 37 38 39 40 41 42 43 44 45 46 47 48 49 50
162
ASUS43 KLOT 280708
RWRIL

ILLINOIS REGIONAL WEATHER ROUNDUP
NATIONAL WEATHER SERVICE CHICAGO/ROMEOVILLE IL
200 AM CDT THU JUL 28 2016

NOTE: "FAIR" INDICATES FEW OR NO CLOUDS BELOW 12,000 FEET WITH NO
SIGNIFICANT WEATHER AND/OR OBSTRUCTIONS TO VISIBILITY.

* THESE STATIONS ARE NOT UNDER NWS QUALITY CONTROL. THEY ALSO MAY NOT
  REPORT WEATHER SUCH AS PRECIPITATION OR FOG.

ILZ001-002-007-009-015-016-024-280800-
NORTHWEST ILLINOIS

CITY           SKY/WX    TMP DP  RH WIND       PRES   REMARKS
MOLINE         PTCLDY    73  69  87 CALM      29.91S
STERLING*      FOG       72  70  94 SE3       29.92F VSB 3/4
SAVANNA*       CLEAR     70  69  96 CALM      29.91S
$$

ILZ003-004-008-010-011-017-018-280800-
NORTH CENTRAL ILLINOIS

CITY           SKY/WX    TMP DP  RH WIND       PRES   REMARKS
ROCKFORD       MOCLDY    72  67  84 CALM      29.93F
FREEPORT*      PTCLDY    67  66  96 CALM      29.94F
ROCHELLE*      PTCLDY    68  67  97 CALM      29.93F
DE KALB*       MOCLDY    70  68  95 CALM      29.94F
$$

ILZ005-006-012>014-019>023-280800-
NORTHEAST ILLINOIS

CITY           SKY/WX    TMP DP  RH WIND       PRES   REMARKS
CHICAGO-OHARE  PTCLDY    73  66  78 SW3       29.92F
CHICAGO-MIDWAY PTCLDY    78  66  66 CALM      29.91F HX  80
AURORA         CLEAR     69  67  93 CALM      29.93F FOG
LANSING*       CLEAR     70  66  87 CALM      29.92F
JOLIET*        CLEAR     70  69  96 CALM      29.93F
WAUKEGAN       PTCLDY    73  71  93 CALM      29.91F
DUPAGE AIRPORT CLEAR     70  65  84 CALM      29.93F
KANKAKEE*      MOCLDY    69  67  93 CALM      29.93F
WHEELING       CLEAR     73  67  81 CALM      29.93F
MORRIS*        CLEAR     70  68  95 CALM      29.92F FOG
ROMEOVILLE*    CLEAR     69  65  88 CALM      29.93F
NORTHERLY ISL    N/A     75  66  73 SW2         N/A
$$

LMZ740>746-280800-
SOUTHERN LAKE MICHIGAN

STATION/POSITION SKY/WX   TEMP    WIND        PRES    VSBY  WAVE
                          AIR SEA DIR/SP/G                  HT/PER
                          (F)     (DEG/KT/KT) (MB)    (MI)  (FT/S)
SOUTHERN BUOY              75 75   20/  4/  6 1012.7F         0
WILMETTE HARBOR            73 73  250/  4/  4   N/A           1/ 3
HARRISON CRIB              77     200/  9/  9   N/A
BURNHAM HARBOR             76     220/  3/  6   N/A
CALUMET HARBOR             76     110/  3/  4 1013.2F
BURNS HARBOR               76      CALM  /  5 1014.2S
MICHIGAN CITY              75      60/  4/  4   N/A
MICHIGAN CITY 6N           76 77  160/  6/  6   N/A           0
ST. JOSEPH                 77 79  170/  6/  8 1012.6F         0
$$

ILZ025>027-034>036-040-047-049-050-058-095>099-280800-
WEST-CENTRAL ILLINOIS

CITY           SKY/WX    TMP DP  RH WIND       PRES   REMARKS
QUINCY         TSTM      70  68  93 S13       29.94F FOG
GALESBURG*     CLOUDY    73  71  96 CALM      29.91F
MACOMB*        CLOUDY    71  70  98 CALM      29.92F
JACKSONVILLE*  PTCLDY    69  67  94 NW5       29.90F
PITTSFIELD*    CLEAR     73  69  88 CALM      29.92S
$$

ILZ028>032-037-038-041>044-048-051>054-059>061-280800-
CENTRAL ILLINOIS

CITY           SKY/WX    TMP DP  RH WIND       PRES   REMARKS
PONTIAC        PTCLDY    72  72 100 CALM      29.93F
BLOOMINGTON    CLOUDY    73  69  87 SE6       29.93F
DECATUR        PTCLDY    74  70  87 SE3       29.91F
PEORIA         CLOUDY    74  71  91 CALM      29.91F
LACON*         CLEAR     73  69  87 CALM      29.91F
LINCOLN*       CLOUDY    74  73  98 CALM      29.91F
SPRINGFIELD    PTCLDY    77  74  90 CALM      29.90F
TAYLORVILLE    MOCLDY    74  73  99 MISG      29.90F
$$

ILZ033-039-045-046-055>057-062-063-280800-
EAST-CENTRAL ILLINOIS

CITY           SKY/WX    TMP DP  RH WIND       PRES   REMARKS
CHAMPAIGN      PTCLDY    72  68  87 SE5       29.91F
MATTOON        PTCLDY    74  71  91 S5        29.91F
PARIS*         PTCLDY    70  70 100 CALM      29.92F
$$

ILZ079-100>102-280800-
SOUTHWEST ILLINOIS

CITY           SKY/WX    TMP DP  RH WIND       PRES   REMARKS
ALTON          CLOUDY    73  73  97 CALM      29.91F
BELLEVILLE     PTCLDY    76  75  98 SW3       29.89F
CAHOKIA*       TSTM      73  67  81 SE8       29.89F
SPARTA*        CLOUDY    75  72  89 CALM      29.92F
$$

ILZ064>066-069>071-074>076-080>082-084>086-088>090-092>094-280800-
SOUTH-CENTRAL ILLINOIS

CITY           SKY/WX    TMP DP  RH WIND       PRES   REMARKS
CARBONDALE     CLOUDY    73  71  93 SE3       29.91F
CAIRO*         MOCLDY    73  73  99 CALM      29.91F
EFFINGHAM*     MOCLDY    74  74 100 CALM      29.93F FOG
MARION         CLOUDY    73  73 100 SW3       29.92F
MT. VERNON     CLOUDY    73  70  88 MISG      29.91S
CENTRALIA*     CLOUDY    74  73  97 CALM      29.91F
SALEM*         PTCLDY    75  72  88 CALM      29.91F
METROPOLIS*    LGT RAIN  73  73  98 CALM      29.92S
$$

ILZ067-068-072-073-078-083-087-091-280800-
SOUTHEAST ILLINOIS

CITY           SKY/WX    TMP DP  RH WIND       PRES   REMARKS
LAWRENCEVILLE  CLOUDY    76  75  97 CALM      29.91F
FLORA*         CLOUDY    76  74  95 CALM      29.92F
FAIRFIELD*     CLOUDY    75  74  99 CALM      29.90F
HARRISBURG*    CLOUDY    73  73  97 CALM      29.91F
ROBINSON*      CLOUDY    74  73  97 SE5       29.92S
CARMI*         CLOUDY    73  73 100 CALM      29.92S
$$

ABBREVIATIONS USED IN REMARKS
   TC - TEMPERATURE IN CELSIUS
  WCI - WIND CHILL INDEX
   HX - HEAT INDEX
  VSB - VISIBILITY
$$





USA.gov is the U.S. government's official web portal to all federal, state and local government web resources and services.